Georgetown, TX

4:22 AM CDT on June 23, 2017 (GMT -0500)
Georgetown Municipal

Weather History for KGTU - November, 2012

Change the Weather History Date:

Thursday, November 15, 2012

  Actual Average Record
Temperature  
Mean Temperature 48 °F -  
Max Temperature 64 °F 65 °F 82 °F (1999)
Min Temperature 33 °F 47 °F 33 °F (1997)
Degree Days  
Heating Degree Days 16    
Moisture  
Dew Point 33 °F    
Average Humidity 57    
Maximum Humidity 87    
Minimum Humidity 34    
Precipitation  
Precipitation 0.00 in - - ()
Sea Level Pressure  
Sea Level Pressure 30.26 in    
Wind  
Wind Speed 1 mph (South)    
Max Wind Speed 7 mph    
Max Gust Speed -    
Visibility 10 miles    
Events      
Averages and records for this station are not official NWS values.
T = Trace of Precipitation, MM = Missing Value Source: NWS Daily Summary

Daily Weather History Graph

Daily Weather History Graph

Search for Another Location

Airport or City:

Trip Planner

Search our weather history database for the weather conditions in past years. The results will help you decide how hot, cold, wet, or windy it might be!

Date:

Astronomy

Nov. 15, 2012 Rise Set
Actual Time 6:57 AM CST 5:33 PM CST
Civil Twilight 6:31 AM CST 5:58 PM CST
Nautical Twilight 6:02 AM CST 6:27 PM CST
Astronomical Twilight 5:34 AM CST 6:56 PM CST
Moon 8:50 AM CST (11/15) 7:30 PM CST (11/15)
Length of Visible Light 11h 26m
Length of Day
10h 35m
Waxing Crescent, 5% of the Moon is Illuminated
Nov 15
Waxing Crescent
Nov 20
First Quarter
Nov 28
Full
Dec 6
Last Quarter
Dec 13
New

Hourly Weather History & Observations

Time (CST) Temp. Windchill Dew Point Humidity Pressure Visibility Wind Dir Wind Speed Gust Speed Precip Events Conditions
12:15 AM 37.4 °F - 28.4 °F 70% 30.28 in 10.0 mi Calm Calm - N/A   Clear
12:35 AM 37.4 °F 34.9 °F 28.4 °F 70% 30.27 in 10.0 mi SW 3.5 mph - N/A   Clear
12:55 AM 41.0 °F - 28.4 °F 61% 30.27 in 10.0 mi Calm Calm - N/A   Clear
1:15 AM 39.2 °F - 28.4 °F 65% 30.27 in 10.0 mi Calm Calm - N/A   Clear
1:35 AM 37.4 °F - 28.4 °F 70% 30.27 in 10.0 mi Calm Calm - N/A   Clear
1:55 AM 37.4 °F - 28.4 °F 70% 30.27 in 10.0 mi Calm Calm - N/A   Clear
2:15 AM 37.4 °F - 30.2 °F 75% 30.27 in 10.0 mi Calm Calm - N/A   Clear
2:35 AM 35.6 °F - 28.4 °F 75% 30.27 in 10.0 mi Calm Calm - N/A   Clear
2:55 AM 37.4 °F - 32.0 °F 81% 30.27 in 10.0 mi Calm Calm - N/A   Clear
3:15 AM 37.4 °F 34.9 °F 30.2 °F 75% 30.27 in 10.0 mi North 3.5 mph - N/A   Clear
3:35 AM 37.4 °F - 28.4 °F 70% 30.27 in 10.0 mi Calm Calm - N/A   Clear
3:55 AM 35.6 °F - 28.4 °F 75% 30.27 in 10.0 mi Calm Calm - N/A   Clear
4:15 AM 33.8 °F - 28.4 °F 81% 30.27 in 10.0 mi Calm Calm - N/A   Clear
4:35 AM 35.6 °F - 28.4 °F 75% 30.27 in 10.0 mi Calm Calm - N/A   Clear
4:55 AM 35.6 °F - 30.2 °F 81% 30.27 in 10.0 mi Calm Calm - N/A   Clear
5:15 AM 33.8 °F - 28.4 °F 81% 30.26 in 10.0 mi Calm Calm - N/A   Clear
5:35 AM 35.6 °F - 30.2 °F 81% 30.27 in 10.0 mi Calm Calm - N/A   Partly Cloudy
5:55 AM 35.6 °F - 32.0 °F 87% 30.27 in 10.0 mi Calm Calm - N/A   Mostly Cloudy
6:46 AM 42.8 °F - 30.2 °F 61% 30.27 in 10.0 mi Calm Calm - N/A   Scattered Clouds
7:47 AM 42.8 °F - 32.0 °F 66% 30.28 in 10.0 mi Calm Calm - N/A   Mostly Cloudy
8:47 AM 46.4 °F - 30.2 °F 53% 30.31 in 10.0 mi Calm Calm - N/A   Mostly Cloudy
9:46 AM 53.6 °F - 32.0 °F 44% 30.30 in 10.0 mi SE 6.9 mph - N/A   Scattered Clouds
10:46 AM 57.2 °F - 32.0 °F 38% 30.00 in 10.0 mi South 5.8 mph - N/A   Overcast
11:46 AM 60.8 °F - 32.0 °F 34% 30.27 in 10.0 mi Variable 3.5 mph - N/A   Overcast
12:48 PM 62.6 °F - 33.8 °F 34% 30.24 in 10.0 mi Variable 4.6 mph - N/A   Overcast
1:47 PM 64.4 °F - 35.6 °F 34% 30.21 in 10.0 mi South 3.5 mph - N/A   Overcast
2:48 PM 64.4 °F - 35.6 °F 34% 30.19 in 10.0 mi SE 5.8 mph - N/A   Overcast
3:47 PM 64.4 °F - 35.6 °F 34% 30.19 in 10.0 mi South 5.8 mph - N/A   Overcast
4:48 PM 62.6 °F - 35.6 °F 37% 30.21 in 10.0 mi SW 5.8 mph - N/A   Overcast
5:47 PM 60.8 °F - 37.4 °F 42% 30.22 in 10.0 mi WSW 4.6 mph - N/A   Overcast
6:48 PM 60.8 °F - 37.4 °F 42% 30.24 in 10.0 mi Calm Calm - N/A   Overcast
7:48 PM 60.8 °F - 37.4 °F 42% 30.25 in 10.0 mi Calm Calm - N/A   Overcast
8:49 PM 59.0 °F - 41.0 °F 51% 30.28 in 10.0 mi Calm Calm - N/A   Overcast
9:49 PM 60.8 °F - 37.4 °F 42% 30.27 in 10.0 mi Calm Calm - N/A   Overcast
10:15 PM 60.8 °F - 37.4 °F 42% 30.28 in 10.0 mi Calm Calm - N/A   Overcast
10:35 PM 59.0 °F - 39.2 °F 48% 30.28 in 10.0 mi Calm Calm - N/A   Overcast
10:55 PM 59.0 °F - 37.4 °F 45% 30.29 in 10.0 mi Calm Calm - N/A   Overcast
11:15 PM 59.0 °F - 37.4 °F 45% 30.29 in 10.0 mi NE 4.6 mph - N/A   Overcast
11:35 PM 59.0 °F - 35.6 °F 42% 30.29 in 10.0 mi East 3.5 mph - N/A   Overcast
11:55 PM 57.2 °F - 35.6 °F 44% 30.30 in 10.0 mi Calm Calm - N/A   Overcast